Flag for USA

Past Weather in San Francisco, California, USA — Yesterday and Last 2 Weeks

Now
77 °F

Passing clouds.


Feels Like: 79 °F
Forecast: 70 / 60 °F
Wind: 16 mph from Northwest

Location: San Francisco International Airport
Current Time: Sep 20, 2020 at 6:23:50 pm
Latest Report: Sep 20, 2020 at 4:56 pm
Visibility: 10 mi
Pressure29.84 "Hg
Humidity: 48%
Dew Point: 56 °F
Location of San FranciscoLocation

Past Weather in San Francisco — Graph

°F

San Francisco Temperature Yesterday

Maximum temperature yesterday: 75 °F (at 2:56 pm)
Minimum temperature yesterday: 61 °F (at 12:56 am)
Average temperature yesterday: 66 °F

High & Low Weather Summary for the Past Weeks

 TemperatureHumidityPressure
High102 °F (Sep 6, 2:56 pm)100% (Sep 12, 7:56 am)30.09 "Hg (Sep 12, 7:56 am)
Low55 °F (Sep 11, 3:56 am)14% (Sep 6, 4:56 pm)29.64 "Hg (Sep 8, 5:56 pm)
Average66 °F74%29.93 "Hg
* Reported Sep 5 4:56 pm — Sep 20 4:56 pm, San Francisco. Weather by CustomWeather, © 2020

Note: Actual official high and low records may vary slightly from our data, if they occured in-between our weather recording intervals... More about our weather records

San Francisco Weather History for the Previous 24 Hours

Scroll right to see more
 ConditionsComfort  
Time TempWeatherWind HumidityBarometerVisibility
4:56 pm
Sun, Sep 20
77 °FPassing clouds.16 mph48%29.84 "Hg10 mi
3:56 pm79 °FPassing clouds.21 mph42%29.84 "Hg10 mi
2:56 pm82 °FPassing clouds.14 mph43%29.85 "Hg10 mi
1:56 pm83 °FPassing clouds.13 mph43%29.87 "Hg10 mi
12:56 pm74 °FPassing clouds.5 mph69%29.88 "Hg10 mi
11:56 am73 °FPassing clouds.5 mph69%29.90 "Hg10 mi
10:56 am70 °FPassing clouds.6 mph73%29.91 "Hg10 mi
9:56 am70 °FPassing clouds.3 mph71%29.92 "Hg10 mi
8:56 am67 °FPassing clouds.No wind73%29.91 "Hg10 mi
7:56 am61 °FPassing clouds.5 mph83%29.90 "Hg10 mi
6:56 am59 °FScattered clouds.5 mph81%29.89 "Hg10 mi
5:56 am60 °FPassing clouds.3 mph75%29.88 "Hg10 mi
4:56 am59 °FPassing clouds.5 mph81%29.87 "Hg10 mi
3:56 am62 °FPassing clouds.3 mph75%29.88 "Hg10 mi
2:56 am62 °FPassing clouds.3 mph80%29.88 "Hg10 mi
1:56 am61 °FClear.5 mph87%29.89 "Hg7 mi
12:56 am61 °FClear.8 mph87%29.89 "Hg7 mi
11:56 pm
Sat, Sep 19
61 °FClear.8 mph87%29.90 "Hg10 mi
10:56 pm63 °FClear.8 mph81%29.90 "Hg10 mi
9:56 pm64 °FPassing clouds.13 mph78%29.90 "Hg10 mi
8:56 pm66 °FPassing clouds.16 mph73%29.90 "Hg10 mi
7:56 pm65 °FPassing clouds.17 mph76%29.89 "Hg10 mi
6:56 pm67 °FPassing clouds.17 mph68%29.89 "Hg10 mi
Weather by CustomWeather, © 2020

See weather overview